Theta_e
354 353 352 350 350 347 346 342 321 326 325 315 317 320 318 331 330 326 324 325 321 328 333 331 330 330 327 324 322 329 329 322 324 315 311 334 348 350 354 356 357 357 357 358 361 362 362 362 362 363 364 364 364 364 364 364 364 363 363 363 362 362 362 361 361 361 361 361 361 360 361 361 362 362 363 362 360 356 358 360 361 361 360 361 360 361 361 361 361 361 361 360 360 361 361 362 362
353 353 349 350 347 348 335 340 324 321 321 316 317 322 323 329 328 324 322 325 325 327 331 330 332 335 334 330 332 330 329 333 334 332 337 344 349 351 354 356 357 356 357 359 361 362 362 364 364 364 364 364 365 364 364 364 364 363 362 362 362 362 362 361 361 361 361 360 362 361 361 362 362 361 361 360 356 355 357 359 360 360 361 360 360 360 361 361 361 361 359 360 360 361 362 362 362
352 349 347 350 348 345 339 337 318 318 314 311 317 322 328 325 324 326 328 331 331 333 330 331 335 335 331 330 326 327 322 336 336 337 338 347 343 348 354 357 358 358 358 359 360 361 363 364 365 364 364 364 364 364 363 363 363 363 362 362 361 361 361 361 360 360 361 361 362 362 361 360 361 360 359 356 355 355 357 358 359 359 361 360 360 360 361 361 362 358 358 357 358 361 362 362 361
352 350 347 348 336 344 329 327 322 318 315 315 316 325 326 325 325 329 334 334 333 331 330 329 331 337 330 325 330 333 332 331 337 337 336 341 344 351 354 356 360 359 359 359 360 360 362 364 365 363 364 364 364 363 363 363 363 362 362 362 361 361 360 361 361 359 360 360 361 359 360 360 361 357 354 353 355 357 357 358 360 360 360 360 359 360 361 361 360 359 358 357 358 360 362 363 360
349 350 350 345 338 328 328 324 322 322 314 317 316 325 327 328 328 331 334 335 332 331 331 332 331 338 340 334 335 328 330 337 338 342 340 347 352 353 355 357 358 357 358 359 360 360 362 364 364 363 363 364 364 364 363 363 362 362 361 361 361 360 359 360 360 360 360 359 360 360 360 359 358 353 352 356 356 355 357 359 359 360 361 361 361 361 360 361 361 361 360 358 359 361 362 362 360
348 348 351 347 335 339 332 323 320 319 323 326 321 323 328 331 330 332 333 336 333 332 334 333 331 330 331 334 337 331 337 330 339 341 344 345 351 354 355 357 357 356 357 359 359 361 363 364 364 363 363 363 363 363 362 362 362 362 361 360 361 361 360 360 360 360 359 359 360 360 360 359 354 353 352 356 357 358 359 359 359 360 361 361 361 361 361 360 360 360 360 360 361 361 360 359 361
344 345 344 344 340 339 322 320 320 321 324 330 325 327 329 331 332 332 332 331 335 335 336 333 335 333 328 334 338 341 345 343 340 342 347 350 352 355 355 355 356 356 357 358 360 362 363 364 364 364 363 363 363 362 362 362 362 362 361 360 361 360 360 360 360 359 358 359 358 360 360 357 353 352 354 355 358 356 357 358 361 361 360 361 361 361 361 360 360 361 360 359 360 360 360 363 362
351 343 341 331 326 329 321 321 322 324 325 331 331 330 332 333 334 333 331 330 327 327 332 335 335 333 330 338 329 341 346 348 347 350 351 352 353 354 354 355 355 355 356 359 361 363 365 364 363 363 363 363 363 362 363 362 362 362 362 362 359 359 358 355 357 358 355 356 358 357 357 353 352 356 355 356 355 356 357 357 360 360 360 361 361 359 359 358 356 359 360 359 360 361 362 363 362
347 343 344 332 323 326 321 320 322 328 327 331 331 335 336 335 335 333 331 333 332 333 331 333 335 329 329 332 333 341 344 349 350 351 351 351 352 354 354 355 353 353 356 358 360 362 364 364 364 363 363 363 362 362 361 362 362 362 361 359 358 358 356 357 358 357 358 358 358 358 356 354 353 354 355 357 355 356 357 357 360 360 360 361 360 359 358 358 359 358 359 359 361 361 362 362 362
344 341 329 328 325 318 320 321 320 324 326 332 331 333 334 336 335 336 332 331 331 331 333 336 335 331 333 329 333 339 341 349 350 349 351 351 353 354 354 355 355 355 356 357 360 361 363 365 363 363 362 362 362 362 361 361 360 360 360 357 355 354 355 356 357 358 358 358 359 358 357 354 353 353 357 357 357 357 356 358 359 359 360 359 359 359 358 356 357 358 357 359 360 362 361 362 361
334 341 340 325 320 318 317 319 321 325 327 332 333 337 337 337 335 334 335 333 335 331 333 336 332 331 332 331 334 346 348 349 347 345 350 352 354 354 354 357 357 357 356 358 360 362 362 364 364 363 362 363 362 362 362 360 360 360 357 355 355 354 354 356 358 359 358 359 358 359 358 355 353 355 353 356 355 355 354 356 358 358 357 359 359 360 360 359 357 358 359 360 361 362 362 361 361
331 331 333 320 319 318 320 320 321 324 328 330 329 335 339 337 337 332 332 330 333 331 331 335 331 335 329 329 332 342 346 346 347 349 351 352 352 354 355 356 357 358 358 359 360 359 363 363 362 364 362 363 362 362 362 361 360 359 356 358 357 357 357 357 357 358 359 359 358 358 358 356 355 354 353 354 354 355 353 357 356 357 357 358 359 360 360 359 358 360 360 360 360 361 360 359 361
332 334 327 322 320 323 324 320 320 323 325 327 329 335 341 336 334 334 334 334 334 331 331 338 337 335 325 329 338 343 341 346 348 350 351 352 354 355 356 355 356 357 359 360 359 359 360 362 362 363 362 361 361 361 362 362 360 359 358 359 360 359 359 358 359 359 359 359 359 358 358 356 354 354 350 353 355 352 353 354 355 357 358 359 360 361 360 359 359 359 361 359 358 358 361 361 361
332 334 329 320 326 323 322 321 322 320 322 330 335 338 339 337 338 337 335 331 332 332 337 339 337 336 330 332 334 336 341 347 349 350 352 354 355 355 355 355 357 358 359 359 358 359 360 361 362 363 365 366 365 363 361 362 361 358 359 360 361 360 360 359 359 359 360 360 359 358 358 356 355 356 355 356 356 355 355 356 356 355 359 359 359 361 360 359 359 359 359 359 357 357 357 358 362
333 339 331 324 321 321 325 319 319 321 323 331 335 336 337 340 339 338 336 331 333 339 339 341 338 332 323 328 327 334 341 346 349 351 352 354 354 354 354 356 356 357 357 357 358 358 359 361 361 363 364 363 365 365 365 361 362 360 359 361 361 361 360 359 360 360 360 358 359 359 358 357 356 355 356 358 358 354 352 353 357 355 358 357 358 359 359 358 358 358 359 356 355 358 356 358 358
337 337 331 321 319 319 322 322 325 323 324 333 336 339 337 339 341 336 338 341 336 340 338 330 339 334 333 332 333 341 345 347 350 351 352 352 353 353 354 354 355 355 357 357 357 359 360 361 361 361 362 362 362 361 363 363 362 360 360 363 362 360 360 360 360 360 360 359 359 360 359 359 358 356 359 358 358 358 355 352 354 355 357 355 356 357 357 357 358 358 358 358 359 359 359 360 360
341 337 324 322 317 319 323 323 324 319 329 333 337 337 333 333 342 343 346 342 334 334 336 336 333 339 335 337 342 345 346 349 351 350 350 349 350 349 351 353 353 354 354 356 358 359 360 360 361 361 362 361 361 361 360 362 361 361 361 361 363 362 361 361 361 360 360 361 359 360 359 359 359 360 359 357 359 357 356 353 354 353 356 355 357 357 356 357 358 356 357 357 359 359 360 362 360
336 327 323 320 322 320 326 325 326 334 328 332 333 337 334 330 339 338 342 338 337 336 336 337 339 340 342 344 346 346 347 348 348 346 345 345 347 346 346 349 350 349 351 352 357 358 359 361 360 360 361 361 361 360 360 361 362 363 365 365 364 362 361 360 360 360 359 359 360 359 359 359 359 360 359 359 357 358 356 355 355 352 356 357 358 356 355 356 356 355 354 356 361 360 361 361 362
329 326 324 320 324 325 331 330 331 331 330 333 335 338 337 335 337 338 333 332 333 331 333 336 336 339 343 345 345 344 346 345 346 345 344 344 343 343 345 347 348 349 349 350 354 357 360 360 360 360 360 360 360 360 359 360 361 363 363 364 363 361 361 360 360 358 359 359 359 358 360 360 359 360 359 358 358 358 356 356 355 355 357 361 359 356 356 357 356 351 349 354 361 361 364 365 364
332 327 321 323 329 330 334 333 333 337 337 333 333 337 338 338 337 342 332 330 332 329 329 332 332 333 337 342 343 344 345 345 346 345 343 344 344 343 344 344 346 348 348 350 352 356 359 359 359 360 360 360 360 359 359 359 360 361 361 362 361 361 361 360 361 360 360 360 359 358 358 359 358 361 359 359 359 359 358 359 358 357 358 359 357 355 356 357 356 355 354 359 359 360 362 360 360
331 327 323 325 331 331 333 334 336 337 337 334 336 338 336 340 340 340 333 329 330 333 335 333 332 334 337 340 341 343 343 343 344 345 343 343 345 344 344 344 345 347 350 352 354 354 357 357 358 360 361 361 360 359 359 358 359 360 361 360 360 360 360 360 360 360 361 361 361 359 358 357 356 358 359 359 359 359 359 358 359 359 360 359 358 352 353 355 355 356 359 360 361 362 361 361 361
331 327 330 329 331 331 333 335 338 336 339 336 337 334 334 342 340 336 334 328 327 333 336 337 337 338 338 339 341 343 343 343 342 343 343 343 342 343 344 345 348 349 350 349 351 355 356 356 358 359 359 360 360 360 359 359 360 359 359 359 359 360 359 359 360 361 361 363 362 360 360 357 357 359 359 359 359 360 359 358 360 362 364 363 363 357 359 360 361 360 360 360 360 360 359 361 362
322 328 329 331 331 331 336 337 337 337 336 336 335 339 340 338 336 337 335 333 336 341 340 340 340 341 342 342 343 341 342 342 342 342 343 342 342 343 343 345 345 345 348 349 353 355 356 357 358 359 359 360 360 361 360 360 359 360 360 359 359 359 360 359 358 359 360 362 362 363 357 358 357 358 360 361 361 363 362 362 361 360 360 359 362 358 358 359 359 358 358 359 358 356 355 360 361
327 323 326 328 329 330 337 337 338 337 338 336 341 341 337 335 329 337 336 340 339 341 342 343 343 343 343 341 342 341 342 342 342 344 344 344 344 344 345 344 346 348 348 349 351 354 356 355 358 359 359 360 360 362 360 359 360 359 359 360 360 361 359 359 358 359 361 362 362 363 362 361 359 359 361 359 359 359 358 359 359 356 358 358 362 358 356 356 357 358 358 358 357 358 355 357 356
323 323 325 326 332 335 338 338 338 338 339 341 340 336 334 337 333 337 337 338 340 341 343 342 342 342 342 342 342 342 343 343 343 344 346 346 346 346 346 346 346 347 347 349 351 353 355 357 358 357 358 359 360 360 359 359 360 360 360 359 359 360 359 359 360 361 360 360 362 362 362 358 358 357 356 357 358 357 358 357 355 356 358 360 359 356 359 359 357 357 358 357 359 359 357 356 357
322 323 324 333 336 338 338 338 338 339 339 340 336 335 337 338 340 336 339 339 341 342 342 341 341 340 340 341 342 342 342 343 344 344 344 346 345 344 345 346 347 346 348 350 350 353 355 357 356 356 358 359 359 357 359 359 360 359 359 359 360 361 359 360 361 359 360 359 359 362 360 357 355 355 356 357 357 359 358 358 358 357 358 360 359 359 361 360 358 358 359 359 357 358 356 358 358
316 318 322 333 337 337 338 336 337 338 338 339 334 333 333 338 339 327 340 340 341 341 340 341 340 339 340 341 342 343 342 343 343 345 344 344 344 345 345 346 346 346 348 348 350 353 356 356 356 358 358 361 360 357 359 359 360 359 359 359 361 359 360 360 360 359 359 359 361 364 363 362 359 357 358 359 359 358 358 359 358 359 358 358 361 359 362 362 362 361 362 363 363 362 359 360 360
310 326 336 336 337 338 338 338 337 337 333 337 337 333 336 336 336 332 337 341 341 339 339 339 339 339 340 341 342 343 343 345 345 344 341 342 343 344 344 345 345 346 346 348 352 356 355 355 356 357 358 360 360 358 359 358 359 359 360 359 360 360 361 360 359 359 359 360 361 362 363 361 363 361 362 361 360 360 358 358 360 360 359 359 361 361 364 367 366 367 368 370 369 367 362 361 362
311 331 327 332 334 333 336 332 331 333 330 337 337 332 330 330 329 337 338 340 341 340 338 338 338 339 340 341 342 343 343 344 345 344 344 345 345 344 343 345 344 345 349 351 355 355 354 356 356 358 358 359 359 358 357 358 359 359 359 359 361 360 360 360 359 360 360 361 363 363 363 364 365 362 363 363 362 360 361 362 360 363 362 362 366 367 369 370 367 366 365 368 367 365 359 359 360
322 330 329 327 328 326 331 333 333 331 332 336 335 315 322 328 334 339 339 339 341 339 337 337 338 338 339 340 341 342 343 344 344 345 345 344 344 343 343 344 346 347 351 355 355 354 356 356 357 357 358 358 359 358 359 358 359 359 360 360 362 360 358 358 359 360 360 361 362 363 362 364 364 365 365 365 364 362 362 363 362 361 365 369 369 369 364 365 363 363 362 361 361 360 355 357 353
327 330 331 324 321 321 329 330 330 327 333 334 332 316 323 329 333 339 339 341 339 336 335 336 337 338 339 339 340 341 342 344 344 345 344 344 343 343 344 344 346 350 354 353 353 356 357 357 357 357 359 358 358 358 357 358 359 359 359 360 361 360 360 358 357 360 360 360 362 362 364 365 366 366 367 366 365 362 359 362 362 362 367 368 365 368 366 365 364 363 363 361 360 358 356 359 354
330 320 317 324 320 323 328 332 329 324 329 333 328 318 322 329 332 338 339 339 339 335 335 336 336 337 338 339 340 340 341 344 345 344 344 344 344 343 343 344 346 351 353 355 356 357 356 358 359 357 358 358 359 358 359 359 359 360 360 360 361 362 359 359 358 358 359 360 361 363 367 366 366 368 368 368 363 364 361 362 363 367 368 367 366 367 366 364 365 363 364 364 358 354 356 353 356
326 321 317 317 321 321 323 329 332 330 330 332 328 318 324 328 334 338 339 338 338 336 335 335 336 337 338 338 339 340 341 342 344 343 344 344 345 344 345 347 348 352 354 355 357 357 356 357 359 358 357 357 359 358 359 359 359 359 361 360 358 361 358 357 359 360 360 361 361 361 366 366 367 368 368 368 366 364 362 363 364 367 368 366 366 365 363 364 364 358 365 367 365 362 354 351 353
319 318 318 321 318 319 318 328 332 332 331 325 329 324 325 330 334 336 337 338 336 335 335 335 336 337 338 338 339 340 341 341 341 343 343 345 346 347 349 352 352 354 356 356 358 357 356 357 358 359 360 358 360 360 360 359 360 360 360 360 362 358 358 357 359 360 361 360 362 362 366 366 367 368 369 367 366 363 364 363 364 368 366 366 365 364 363 364 364 362 361 366 365 363 356 353 351
315 316 318 318 321 320 320 320 327 330 330 326 326 325 326 330 332 334 335 337 336 334 335 335 335 336 337 337 338 339 340 341 342 344 344 346 347 349 349 352 353 355 356 356 358 359 359 359 360 361 361 360 360 361 362 360 360 360 359 360 359 360 361 360 360 359 360 362 361 364 366 365 367 368 368 368 367 363 363 364 365 368 366 364 364 363 362 363 363 363 361 363 368 365 360 357 355
318 318 319 320 317 319 320 325 329 330 325 324 325 322 325 329 330 333 334 336 336 334 336 335 335 337 337 337 338 339 340 341 344 345 345 346 348 349 350 352 353 355 356 357 359 359 360 360 360 361 362 360 361 361 360 358 357 357 355 357 356 357 359 359 361 360 361 362 362 364 366 366 367 368 368 368 367 364 362 362 365 365 365 363 362 360 360 361 363 362 363 362 362 361 363 360 356
319 320 320 319 320 321 325 326 328 332 327 324 325 325 327 328 330 332 333 334 334 333 334 334 335 335 336 337 338 339 340 341 344 345 345 346 347 349 351 353 353 355 357 358 358 358 359 358 358 358 361 362 361 358 357 356 354 354 356 353 353 355 357 359 360 362 362 361 364 365 367 365 367 368 368 367 365 365 365 364 364 365 365 364 363 362 364 365 366 366 365 368 359 357 354 355 357
315 316 317 318 320 319 325 324 324 330 326 321 324 323 326 329 330 331 334 332 329 331 333 333 334 335 336 338 338 339 341 343 344 344 345 346 346 348 350 352 354 352 356 357 357 357 359 359 358 359 361 362 361 360 359 357 358 357 355 354 354 355 357 357 359 362 363 363 366 367 368 367 368 368 368 367 367 365 364 362 364 363 365 365 366 367 366 366 366 364 363 360 364 357 353 354 354
302 309 308 312 317 322 325 325 326 326 326 320 322 322 322 328 332 332 332 331 332 333 334 333 334 334 335 337 339 340 340 340 342 343 344 345 346 347 349 351 352 353 355 355 357 357 358 359 360 361 360 360 361 361 360 359 359 360 356 357 356 356 361 362 361 362 363 362 363 365 366 368 368 367 367 367 365 364 363 362 363 365 364 365 364 362 362 363 365 363 364 361 356 358 357 358 359
303 301 303 303 314 315 313 323 326 325 324 321 322 322 325 329 332 332 334 332 332 335 335 336 337 335 335 336 339 339 339 339 339 341 342 344 346 347 349 350 352 353 355 355 356 357 357 359 360 361 361 361 362 362 362 361 360 362 362 362 362 359 359 363 363 364 363 362 361 363 365 366 366 365 366 364 364 365 364 363 363 363 365 366 364 362 362 361 364 363 360 362 363 351 349 351 357
300 301 301 301 310 314 319 320 324 326 326 324 324 321 321 326 325 327 332 335 333 334 334 336 337 337 340 340 340 341 339 339 340 341 342 343 344 346 348 350 352 352 353 354 355 355 355 357 360 361 361 361 362 362 362 362 361 360 361 363 363 362 362 361 360 358 360 361 360 361 362 364 366 364 365 365 364 365 366 365 364 363 364 365 364 362 362 360 362 363 365 363 362 357 348 349 354
302 301 302 302 306 321 322 322 322 319 319 323 322 312 312 322 324 325 328 330 329 332 332 332 335 335 337 337 336 339 341 341 341 341 342 343 344 346 349 350 350 351 352 354 355 355 356 357 360 361 361 361 361 362 363 361 360 358 357 355 353 353 353 354 353 355 356 357 358 360 363 363 363 365 365 365 365 364 365 366 366 363 363 364 364 361 363 363 363 362 364 363 361 363 360 350 347
301 303 303 303 308 321 322 322 321 311 309 319 326 311 308 320 320 324 326 327 327 330 330 331 334 334 334 337 338 337 337 338 340 341 343 343 344 345 347 349 350 350 352 355 355 356 356 358 360 360 361 361 361 363 362 361 360 359 358 356 356 355 353 356 360 361 360 360 362 361 362 363 364 363 363 365 365 366 365 366 366 365 363 363 365 365 363 359 360 362 365 364 362 366 365 354 352
301 302 301 306 313 318 320 321 318 316 322 324 323 319 311 311 319 325 326 326 326 326 328 331 333 334 333 335 338 338 337 337 338 339 342 343 345 345 346 348 349 350 352 354 354 355 356 358 359 359 361 361 362 363 361 362 360 359 359 358 358 357 354 357 361 362 363 363 361 360 360 361 363 363 363 365 365 365 365 364 365 365 364 363 363 363 362 361 364 366 367 368 368 368 364 357 353
303 302 305 309 311 316 320 318 317 319 315 312 317 320 310 309 318 326 325 321 323 324 326 328 331 332 334 335 337 340 338 337 337 338 340 342 344 345 346 348 349 351 351 352 353 354 356 357 359 360 360 362 362 363 362 362 362 361 360 359 358 359 360 360 362 363 363 363 361 361 361 360 361 362 363 364 365 365 365 364 365 364 363 363 365 364 363 363 363 364 366 367 364 366 365 362 361
304 306 313 316 317 318 318 315 318 317 311 305 313 317 307 309 317 321 324 322 321 324 327 329 331 333 334 336 338 339 340 338 336 338 341 343 345 345 347 349 349 350 351 353 353 354 355 356 358 358 359 360 362 363 363 363 362 362 360 360 360 360 360 361 361 361 362 362 360 360 360 360 359 360 363 364 366 366 365 366 364 363 363 362 363 363 364 364 364 365 364 363 365 364 367 364 361
306 313 314 315 317 318 319 318 317 313 304 306 314 317 312 304 315 318 318 320 324 326 328 331 332 333 336 339 339 339 340 339 336 337 340 343 345 346 347 347 349 350 351 352 352 353 354 354 356 357 359 360 362 362 363 362 362 361 361 361 360 360 361 360 358 359 357 358 356 358 358 359 359 360 360 363 363 363 364 366 363 363 364 365 364 363 363 361 361 362 363 366 368 366 363 364 363
307 308 311 312 312 316 314 313 316 305 301 310 315 315 316 303 310 320 326 328 329 329 328 329 331 332 334 337 338 339 340 341 338 336 338 342 344 345 346 347 348 349 350 350 351 352 353 354 355 357 359 360 361 362 362 361 360 361 361 362 361 362 362 358 359 358 359 358 358 356 358 358 358 361 362 359 361 359 363 364 366 364 365 365 364 364 363 363 363 364 364 366 366 369 368 365 362
304 304 309 299 303 305 300 309 301 302 300 309 316 317 311 310 315 321 326 328 329 331 332 331 332 333 334 338 338 339 341 341 338 336 337 339 341 343 344 346 349 349 349 350 350 351 353 354 355 356 357 359 361 361 361 361 360 361 360 361 361 363 362 361 360 359 361 360 360 360 360 358 359 359 360 359 360 361 364 365 365 364 365 366 366 365 366 367 366 364 365 364 365 367 366 365 361
302 300 304 298 299 297 294 299 303 303 307 310 314 318 310 315 317 322 323 328 330 331 333 334 335 335 335 338 338 338 340 341 338 336 337 339 340 342 344 346 348 348 348 349 350 351 352 353 355 355 357 359 361 361 361 361 360 361 362 361 361 362 361 361 360 358 359 361 362 362 359 358 360 360 360 361 361 361 362 364 365 365 367 367 368 368 368 367 368 365 365 365 363 367 367 366 364
301 304 303 300 303 297 294 299 295 296 303 308 317 310 308 308 315 325 328 331 332 331 332 335 337 338 338 338 338 338 339 343 340 336 336 338 340 343 344 346 347 348 347 348 349 352 354 353 355 355 356 358 359 360 361 360 359 361 361 361 361 361 360 359 360 360 360 360 359 360 362 361 359 361 362 364 365 364 364 365 365 365 366 368 369 368 366 368 370 369 368 367 368 367 367 365 363
303 303 305 301 301 310 297 305 302 304 304 305 310 309 314 315 323 328 332 333 333 333 331 333 335 337 338 337 337 337 339 342 341 336 335 338 342 344 345 345 347 347 348 348 349 352 352 353 355 355 356 357 357 359 360 360 360 360 362 361 361 362 363 361 362 363 362 361 362 361 363 365 363 364 366 366 364 365 364 364 365 365 367 367 368 369 369 368 370 368 367 367 367 365 367 365 363
300 300 297 301 309 309 305 306 307 307 304 303 313 311 314 320 320 325 330 330 331 331 330 331 334 336 337 336 337 338 338 340 342 340 339 338 340 342 344 345 345 346 347 347 351 353 353 354 354 355 356 357 356 359 359 360 361 360 361 360 360 361 360 360 358 360 358 360 362 362 361 361 364 366 363 365 364 367 367 365 364 363 366 368 368 369 368 370 371 368 365 367 366 365 367 366 364
301 297 301 307 309 308 304 297 303 302 297 302 309 306 311 308 307 324 325 326 328 330 330 332 335 336 335 335 336 338 338 339 342 342 343 342 341 343 344 345 345 346 346 347 351 353 354 355 355 355 355 355 355 356 357 359 360 360 360 360 361 361 359 358 358 359 360 361 361 362 362 362 361 362 363 361 364 365 367 367 366 365 366 367 367 367 368 369 370 367 366 368 366 369 367 367 366
304 302 309 300 296 296 304 303 296 296 296 301 306 308 309 311 311 318 320 322 324 329 332 333 333 335 335 335 337 339 339 338 338 341 342 344 343 343 344 344 345 347 348 349 349 351 352 354 356 356 355 354 354 354 355 357 359 358 358 359 359 360 360 360 360 362 362 360 358 360 360 361 362 365 365 366 366 364 366 366 368 365 366 367 368 367 370 370 370 367 365 364 367 369 367 366 368
305 306 304 307 304 301 299 300 305 302 299 299 302 306 305 315 315 320 321 323 325 328 330 331 333 334 336 336 337 337 337 336 337 341 341 341 343 348 347 344 344 346 348 347 347 349 349 351 354 356 356 356 357 355 356 355 355 356 356 359 360 362 362 360 362 362 359 359 360 360 361 360 362 363 364 365 365 364 364 363 363 362 362 364 365 366 367 368 369 367 364 361 365 368 366 366 365
301 302 301 302 304 306 307 306 304 301 302 300 302 300 307 316 320 324 322 324 325 327 328 329 331 333 335 336 337 337 337 338 338 340 340 341 341 343 347 350 349 345 347 347 347 347 348 350 351 352 353 354 353 354 355 355 355 355 357 358 357 359 358 359 359 360 360 360 361 362 361 361 364 363 365 363 364 365 366 365 363 364 362 365 366 365 367 369 368 367 366 366 367 368 366 365 366
304 303 301 302 301 300 296 296 307 308 304 298 300 300 311 315 322 324 323 326 327 328 328 328 331 333 335 336 338 339 338 339 339 340 339 341 342 344 346 347 350 349 344 347 346 347 348 348 349 350 352 353 353 352 354 356 356 356 355 356 356 357 359 359 358 359 359 359 361 362 364 365 362 364 365 363 365 364 365 365 364 365 366 365 367 369 365 366 366 365 364 363 364 367 367 365 367
Wind_Speed
8 5 5 5 2 1 1 1 2 2 1 4 4 2 4 3 7 8 10 11 9 6 2 10 11 10 3 4 5 6 5 5 4 2 4 4 7 10 10 12 11 10 9 9 8 8 8 7 6 9 11 11 10 10 9 9 9 9 8 8 8 8 8 8 8 7 7 10 9 9 8 11 11 11 12 12 19 11 10 11 12 13 14 15 14 14 14 13 14 14 12 13 13 14 14 14 14
6 5 5 4 2 1 1 1 0 2 3 4 3 2 4 6 7 8 12 8 6 9 9 12 8 4 4 9 6 10 10 9 4 5 5 8 10 8 12 12 12 11 9 8 7 7 8 8 8 10 10 10 10 9 9 9 9 9 8 7 7 7 7 8 8 7 7 9 9 8 9 11 11 10 11 18 16 10 11 12 10 11 14 13 13 13 14 14 13 14 14 13 13 13 14 14 15
6 5 4 2 1 1 1 1 1 2 5 4 4 3 1 6 8 9 8 5 10 11 14 10 7 5 9 9 7 2 4 5 8 9 8 12 12 9 12 12 11 11 10 8 7 7 6 7 5 8 10 9 9 8 8 9 9 8 8 7 6 7 7 8 7 7 7 9 8 7 6 9 10 11 14 18 12 9 10 11 10 10 13 14 13 13 14 14 14 16 17 13 10 10 13 14 14
6 3 2 2 0 1 1 1 0 1 2 3 5 4 4 8 10 9 6 7 11 14 13 11 5 4 2 7 5 7 7 5 5 11 10 11 8 12 12 12 11 9 8 7 7 7 6 7 6 8 8 8 8 8 8 8 7 7 8 8 7 6 6 7 7 7 7 7 8 7 5 7 9 13 21 14 10 10 11 11 10 10 11 13 13 13 13 14 15 14 15 14 11 7 10 15 16
5 3 1 2 1 0 2 2 2 0 2 3 5 6 7 9 10 10 9 8 13 14 12 8 6 5 7 8 2 1 4 7 9 7 10 8 10 12 12 11 9 9 8 8 7 7 7 6 4 7 8 8 8 8 8 7 6 7 7 8 8 7 6 6 6 7 6 8 8 7 6 7 13 20 10 11 10 7 11 10 9 10 12 13 14 13 14 15 14 14 15 14 11 9 11 12 12
4 2 0 1 1 1 2 1 1 2 3 0 5 7 9 10 11 12 12 9 11 12 8 6 4 7 4 6 4 4 6 3 8 6 10 10 14 14 13 11 9 9 9 7 7 6 6 6 6 7 7 8 8 7 7 6 6 7 7 7 8 6 6 7 5 6 8 8 7 7 6 8 19 17 9 8 9 8 12 11 11 12 12 13 14 14 15 15 13 13 14 12 11 10 11 9 12
3 1 1 1 2 1 2 1 2 1 3 2 4 9 11 10 12 14 14 12 5 8 4 5 10 10 8 5 8 6 3 6 7 9 8 14 14 14 13 11 10 10 9 7 7 6 7 5 7 7 7 7 7 7 7 6 6 7 7 8 7 6 6 8 11 11 9 8 4 6 6 15 19 12 10 10 9 6 10 11 12 12 11 12 14 14 15 16 14 14 13 12 10 10 9 10 12
2 2 1 2 2 1 1 2 2 1 3 2 4 11 10 10 13 13 14 12 11 10 7 9 5 8 7 1 4 6 5 4 8 10 13 13 14 14 12 11 10 8 8 7 7 6 7 6 7 7 6 7 7 7 7 7 7 7 8 8 8 11 12 9 8 8 7 5 4 6 10 17 12 11 9 12 10 5 7 11 12 13 13 13 15 16 16 13 11 12 13 10 10 8 9 10 12
2 1 1 2 1 1 0 1 2 2 4 5 8 8 8 11 12 12 12 8 9 8 12 9 5 4 4 9 8 6 6 10 12 13 13 14 14 13 9 9 10 8 8 8 7 6 6 7 7 7 6 7 7 7 7 7 7 7 8 12 14 10 10 9 8 7 7 7 6 9 10 16 11 9 10 11 11 10 9 11 11 14 13 14 16 18 16 12 12 12 12 10 7 8 9 9 10
1 2 2 2 1 1 2 2 3 2 3 5 7 8 9 9 8 7 11 11 9 13 7 5 3 9 10 10 9 5 7 11 14 14 12 12 13 11 10 8 9 10 9 8 7 6 5 8 8 6 6 6 6 7 7 9 7 8 11 17 9 6 8 10 9 8 8 8 8 8 11 15 13 11 10 11 13 12 11 11 11 13 12 13 16 19 19 15 12 11 10 9 9 8 9 11 11
1 1 1 1 1 1 3 4 2 4 5 4 5 6 8 8 8 9 8 11 9 9 8 10 10 12 9 8 6 5 9 12 14 15 12 12 11 11 9 8 9 9 9 8 7 5 5 6 8 7 6 6 7 7 7 8 8 10 14 14 10 6 9 10 9 9 9 9 8 9 10 15 12 14 9 8 8 13 13 9 8 13 13 12 15 18 19 17 14 11 10 8 8 9 10 9 10
1 2 1 3 2 2 1 4 4 2 3 5 5 6 4 7 7 9 11 13 8 11 9 5 7 11 10 9 6 8 11 12 13 13 12 11 10 10 9 7 8 8 9 8 6 5 6 6 5 7 7 7 7 7 7 8 9 12 14 14 11 9 11 10 9 9 9 10 8 9 10 14 17 18 9 7 10 15 11 9 8 12 13 11 14 17 18 16 15 14 11 9 9 10 11 7 11
2 2 3 1 3 2 2 2 1 2 5 4 6 4 4 7 7 10 10 10 9 10 7 1 15 3 7 8 8 10 12 11 12 13 13 11 10 9 8 8 8 9 8 7 6 5 5 5 5 5 7 7 7 8 8 9 11 14 16 13 11 11 12 10 9 10 11 10 9 8 10 15 18 22 11 8 10 16 14 12 9 10 14 13 13 14 16 14 13 13 13 12 9 7 8 10 11
1 2 3 3 1 1 1 2 0 3 4 5 3 4 3 5 4 8 11 11 8 5 5 11 7 10 12 9 9 10 10 12 13 13 10 11 10 9 10 8 9 8 7 7 6 5 5 5 5 5 5 5 5 7 8 10 11 15 15 13 11 11 12 12 12 11 12 12 11 10 11 14 17 19 14 10 12 16 19 15 11 11 13 14 12 14 14 12 12 12 12 10 10 7 7 7 11
3 0 1 2 2 1 1 3 5 4 2 4 4 5 5 4 6 7 10 13 7 7 9 6 6 4 7 10 10 11 13 13 14 13 12 12 11 10 10 8 8 7 7 6 5 5 5 5 6 6 6 6 6 5 5 8 11 15 14 12 11 12 12 14 13 13 13 13 13 12 12 14 17 19 15 13 15 19 16 14 14 11 12 12 11 14 13 11 11 9 10 10 8 8 6 8 7
1 2 2 2 2 2 3 2 4 3 3 4 5 6 9 7 5 8 3 3 8 7 7 5 1 2 11 6 14 15 17 15 13 13 13 13 12 10 9 8 7 6 6 5 5 4 5 5 5 5 5 6 5 6 7 7 12 13 13 13 13 13 14 15 14 13 14 14 14 13 13 12 14 15 16 14 16 20 20 14 15 10 12 12 13 15 12 10 11 8 8 11 10 9 9 8 8
1 2 2 1 2 2 3 4 7 4 5 6 6 7 8 8 3 5 4 11 13 7 7 6 3 5 10 10 17 18 17 15 14 15 14 12 9 8 8 7 6 5 4 4 3 4 5 6 5 5 6 6 6 6 6 7 9 12 12 14 14 14 14 14 13 13 13 13 12 12 11 10 9 9 11 11 14 14 20 21 16 11 12 11 13 13 11 13 12 7 3 8 9 10 9 8 9
2 2 2 2 1 3 1 6 7 3 10 8 8 5 11 11 7 8 10 10 10 9 10 10 11 10 14 16 17 17 17 16 16 15 13 12 9 9 8 7 7 6 5 4 3 4 5 5 5 5 5 6 6 5 5 5 7 9 9 8 8 9 11 11 10 9 11 10 12 10 8 7 8 9 11 13 10 13 17 18 20 13 11 12 14 10 9 11 12 10 7 2 9 9 8 5 6
3 1 2 4 1 2 3 3 7 7 7 8 6 6 9 10 11 7 8 11 12 11 10 12 13 14 17 17 18 17 16 16 16 14 14 13 11 11 9 8 7 7 5 4 3 4 4 4 4 6 6 6 6 6 5 6 7 6 8 7 7 9 10 10 9 9 9 9 9 8 7 7 9 10 10 11 11 16 15 19 19 17 15 17 15 10 8 11 13 13 2 6 8 8 5 4 4
4 3 2 2 3 4 1 6 8 3 11 11 9 6 9 9 7 5 9 12 12 13 12 12 14 17 19 18 18 17 16 15 14 14 14 13 11 11 10 10 8 7 5 4 4 3 4 3 4 5 6 5 5 5 5 5 6 6 6 6 6 6 7 7 8 8 9 9 9 8 8 8 10 9 13 15 13 10 11 16 17 17 17 17 17 9 8 10 11 12 15 7 5 3 4 4 3
3 4 3 3 2 3 2 6 7 11 9 9 7 8 10 6 6 6 12 10 8 8 10 15 17 19 20 19 19 16 16 15 14 13 13 13 11 9 9 8 7 6 5 4 3 3 4 4 3 5 5 5 5 5 5 5 5 5 5 6 6 5 6 6 7 8 9 9 9 8 9 9 8 8 9 8 8 8 8 7 7 7 8 10 13 7 5 5 9 7 5 3 3 3 3 3 3
2 5 4 6 4 3 4 7 9 10 10 9 8 11 10 6 6 9 12 7 7 8 9 12 16 20 22 22 19 16 16 15 14 13 13 13 12 10 9 7 6 6 5 4 4 4 4 4 3 4 4 5 5 5 5 6 5 5 5 5 6 5 6 6 6 6 8 8 9 9 9 9 8 8 8 8 8 7 7 6 6 6 8 8 7 8 8 6 4 3 3 2 2 3 3 3 3
5 4 7 8 7 4 5 8 10 13 12 11 10 6 8 7 7 8 3 2 5 8 8 12 14 16 17 19 18 17 16 15 14 13 13 13 12 10 9 7 7 7 6 4 5 4 4 4 4 4 4 5 5 5 5 5 5 5 5 5 5 5 5 6 6 6 7 7 8 8 9 8 8 8 9 8 7 5 5 5 5 6 7 6 5 5 4 3 2 2 2 2 2 3 3 3 2
7 5 2 5 4 5 7 8 11 10 12 10 6 6 7 10 10 4 4 4 10 10 11 14 15 16 17 17 17 17 15 15 14 12 11 10 10 10 9 8 7 6 5 5 5 5 5 5 4 4 5 5 5 5 5 5 5 5 6 5 5 5 5 6 6 6 6 6 7 6 7 7 7 8 8 7 7 6 6 6 6 6 6 5 4 4 4 2 2 2 2 2 2 3 3 3 3
7 7 6 6 3 4 8 9 10 11 9 7 8 7 6 3 7 7 5 8 12 13 13 15 16 17 16 15 16 15 14 13 12 11 9 8 9 9 8 7 7 6 6 6 5 6 5 5 5 4 5 5 5 4 5 4 4 5 5 5 5 5 5 5 6 6 6 6 6 6 6 7 6 7 7 6 6 6 6 6 6 6 6 5 4 4 2 2 2 2 2 2 2 2 2 2 2
9 9 2 1 4 8 9 11 10 10 7 9 10 8 6 7 8 7 6 9 12 14 15 16 16 16 16 15 15 14 14 13 13 12 10 9 10 10 9 8 7 7 6 6 6 5 5 5 5 5 4 5 4 4 4 4 4 5 5 5 5 4 5 5 5 5 5 6 6 6 6 6 6 6 6 6 6 6 6 6 6 5 5 4 3 3 2 1 2 1 2 2 3 2 2 2 2
2 3 3 4 7 8 9 11 8 8 8 9 10 9 7 1 2 5 6 11 14 15 16 16 16 16 15 14 14 13 13 13 13 11 11 10 10 9 9 8 8 7 6 6 6 5 6 5 5 5 4 4 4 4 4 4 4 4 4 4 4 4 5 5 4 5 5 5 5 5 5 5 5 6 6 5 5 5 5 6 5 5 4 3 2 2 1 2 2 2 2 2 2 2 2 2 2
1 5 8 8 7 6 10 10 6 6 4 5 10 10 7 3 1 5 10 11 15 16 16 17 15 14 14 14 14 12 12 12 11 12 13 12 9 9 10 8 9 8 8 7 5 5 6 6 5 5 5 4 4 4 4 4 4 4 4 3 4 4 4 4 5 5 5 5 5 5 4 4 4 5 5 5 5 5 5 5 4 4 4 3 2 2 2 2 2 2 1 1 1 1 2 2 1
4 12 8 8 8 7 6 8 6 2 5 2 10 8 6 6 3 6 11 12 14 15 16 16 15 14 14 14 13 11 11 12 11 10 11 9 8 8 9 9 9 9 6 7 6 6 7 6 5 5 5 4 5 5 4 3 3 4 4 3 4 4 4 4 5 5 5 5 4 4 4 3 3 3 3 4 4 4 4 4 4 4 4 3 3 2 2 1 2 3 3 1 2 2 3 2 1
8 6 9 8 5 5 4 8 6 2 5 3 6 5 6 8 5 8 11 13 14 14 15 15 13 13 13 13 12 12 11 12 12 9 9 9 9 9 9 9 9 8 7 6 7 7 5 5 4 4 5 5 5 4 3 3 3 3 3 3 3 3 4 4 4 4 5 4 4 4 4 3 2 2 3 3 3 4 4 4 4 4 3 3 3 2 3 3 4 5 5 4 3 3 3 3 3
6 7 7 7 7 4 4 4 7 5 3 3 3 2 4 7 6 7 9 13 16 15 15 15 14 13 13 12 12 12 12 11 11 10 10 10 10 9 10 10 9 8 7 7 8 8 7 6 5 4 5 5 5 4 4 4 3 3 3 3 4 3 3 4 4 4 4 4 4 4 3 3 2 2 3 3 3 3 4 4 4 4 3 3 3 3 3 4 4 5 5 5 4 3 3 3 4
6 7 5 4 4 5 7 7 8 7 4 4 3 3 1 9 8 8 7 10 13 14 15 15 14 13 13 12 13 12 12 11 10 10 10 11 10 9 10 11 10 9 9 8 7 7 7 7 7 5 6 6 5 5 4 4 3 2 2 3 3 3 4 3 3 3 4 4 3 3 3 3 2 3 3 3 3 3 3 4 4 3 3 3 3 4 4 4 4 5 5 5 5 5 4 4 3
3 3 5 7 3 5 4 5 8 4 7 7 5 2 3 6 9 9 8 9 10 13 15 15 16 14 13 12 12 11 11 12 10 10 11 10 10 9 10 10 10 10 9 9 9 8 8 8 7 7 7 6 5 5 5 4 3 3 2 2 3 4 4 4 3 3 3 3 2 3 3 3 2 2 2 2 2 3 3 3 4 3 3 3 3 3 4 4 4 5 4 4 4 3 4 5 4
7 1 3 6 7 6 5 5 7 7 9 9 9 5 2 3 10 10 8 9 11 13 16 15 14 12 13 12 12 12 12 12 11 11 12 11 9 10 9 9 10 10 9 10 10 9 9 8 7 6 6 6 5 5 5 4 4 3 2 2 2 3 3 3 3 3 3 3 3 3 3 3 3 3 2 2 1 2 3 3 3 3 2 3 3 3 4 4 4 5 5 4 4 3 4 5 5
9 7 5 6 5 9 5 7 9 9 11 10 10 9 2 4 9 11 10 10 10 13 13 15 15 14 13 12 13 13 12 11 11 11 12 12 11 11 9 10 10 10 8 10 9 8 8 7 6 6 6 6 6 5 4 4 4 3 2 2 3 2 2 2 2 2 3 3 2 3 3 3 3 3 3 2 2 2 2 2 3 3 2 2 2 3 4 4 4 4 5 5 3 3 4 4 5
7 9 5 6 8 8 5 4 7 13 11 9 10 8 5 5 7 11 11 12 10 8 8 10 13 13 13 12 12 12 11 12 10 11 12 11 10 10 9 9 9 9 8 9 10 9 8 8 6 6 6 6 6 5 4 4 4 4 4 3 3 2 2 2 2 2 2 2 2 3 3 3 3 3 3 2 2 2 1 1 2 2 2 2 2 3 4 3 4 4 5 5 5 2 2 3 4
4 7 5 7 5 6 4 4 3 10 7 6 7 6 3 3 5 9 11 12 10 10 9 8 13 14 13 12 12 12 12 11 10 11 11 12 11 10 9 9 9 9 9 10 10 10 9 9 8 8 6 6 6 5 6 5 5 5 4 4 4 4 3 3 2 2 2 2 2 2 3 2 3 3 3 2 2 2 1 1 1 1 1 2 2 3 3 3 3 3 3 2 5 4 4 4 4
7 7 7 5 6 3 4 5 3 2 3 1 1 6 5 4 4 8 10 12 13 12 11 10 14 15 14 13 12 12 11 8 10 10 11 12 10 11 10 9 10 10 9 10 11 11 10 10 9 8 6 7 6 6 5 5 4 5 5 5 4 4 4 4 3 2 2 2 2 2 2 2 3 2 2 2 2 2 2 1 1 1 1 1 2 2 2 2 3 3 4 3 3 4 4 6 5
2 4 5 5 4 6 7 12 11 7 5 5 6 8 7 7 6 8 12 14 13 10 10 11 12 16 13 14 12 11 11 11 11 12 12 11 12 12 10 10 10 11 11 11 10 10 10 10 9 8 7 7 6 6 5 5 4 4 5 4 5 4 3 3 2 2 2 2 3 3 2 3 3 3 3 3 2 2 1 1 1 1 1 1 1 1 2 3 3 4 5 4 3 3 3 3 5
2 3 5 4 7 7 3 4 9 5 5 4 11 10 7 6 6 8 11 12 10 7 5 6 7 10 15 14 11 11 13 12 13 13 13 12 12 12 11 11 10 10 9 10 10 10 9 8 9 9 8 7 6 6 6 5 5 4 3 2 3 2 3 3 3 3 3 2 3 3 3 3 3 3 3 3 2 2 2 1 1 1 0 1 1 1 2 2 2 3 4 4 4 4 4 5 4
2 1 1 5 8 2 1 6 7 3 2 2 6 6 4 7 8 7 9 10 7 8 8 6 6 3 2 5 10 11 12 12 12 13 13 13 13 13 12 11 11 10 10 10 10 10 7 10 10 10 8 8 7 7 7 6 6 5 3 3 3 3 2 3 4 4 3 3 3 3 4 4 3 3 3 3 2 2 2 1 1 1 1 0 1 1 1 2 2 3 3 4 5 4 4 4 4
2 4 5 2 6 8 9 12 10 6 5 5 9 4 5 9 11 11 9 9 10 9 11 10 8 8 6 6 11 10 11 11 12 12 13 13 13 13 12 12 12 11 11 10 10 10 9 8 9 9 8 7 8 9 8 7 7 6 5 5 5 4 4 4 4 4 4 5 4 4 4 4 4 4 3 3 3 2 2 2 2 2 1 1 1 1 1 1 1 2 3 3 4 4 3 4 5
4 2 6 5 5 10 14 13 8 5 4 7 9 6 2 6 11 12 12 11 14 10 10 11 10 8 9 6 7 10 11 11 12 12 12 13 13 13 12 12 13 13 12 10 10 10 10 8 9 9 8 7 8 8 9 7 7 7 8 7 5 5 4 3 3 3 3 3 3 4 4 4 4 4 4 4 3 3 2 2 2 2 2 1 1 1 1 1 1 2 2 3 3 2 3 4 5
5 2 4 7 10 12 13 13 8 2 4 4 6 5 6 3 7 12 12 13 13 15 15 12 9 11 11 11 9 9 10 11 12 13 13 13 14 13 14 14 13 13 11 11 10 10 11 9 9 9 7 7 8 8 9 8 8 7 8 7 5 5 5 4 4 3 3 2 3 3 3 3 4 4 4 4 4 4 3 3 3 2 2 1 1 1 1 1 1 1 2 2 2 1 2 3 4
0 2 5 7 7 8 11 9 5 4 4 4 8 7 4 5 3 6 12 13 13 15 17 16 12 12 12 12 11 10 11 11 12 12 13 14 14 15 15 14 14 12 11 12 11 11 10 10 9 8 8 7 8 10 9 9 8 7 7 6 5 4 4 3 3 2 2 2 4 3 3 3 4 4 5 4 4 4 3 3 3 3 3 2 2 1 1 1 1 1 0 0 1 1 1 2 2
3 6 5 5 3 5 8 6 5 5 4 5 9 10 6 4 3 5 9 11 15 15 16 16 16 14 13 12 11 11 10 10 11 12 13 14 14 15 15 14 13 13 11 11 11 10 10 9 9 10 9 8 8 10 9 9 9 7 7 7 7 5 4 3 3 3 3 2 3 4 4 4 4 4 4 5 4 4 4 3 3 3 3 2 2 1 1 1 1 1 1 1 1 0 0 0 1
8 6 7 7 5 5 4 2 4 5 5 5 9 13 8 4 4 7 11 9 11 10 10 13 15 14 13 12 13 12 11 11 10 11 12 13 14 14 13 14 14 12 10 11 11 11 11 11 10 11 10 8 8 9 9 9 9 8 7 7 8 7 6 5 4 5 4 4 4 4 4 4 4 4 3 3 4 4 4 4 4 3 3 2 3 2 2 2 2 1 1 1 1 1 1 1 1
10 4 7 8 6 5 4 4 3 5 3 2 6 13 10 7 2 5 7 2 8 12 15 17 17 18 14 12 14 15 14 12 12 12 12 12 12 13 13 13 13 12 11 11 11 10 11 11 11 11 10 10 9 9 10 10 9 8 8 8 8 7 7 5 6 6 6 6 5 5 4 4 4 3 3 3 4 5 4 4 4 4 3 3 3 3 2 2 2 1 1 1 1 2 2 2 1
6 5 8 9 5 5 4 4 6 6 3 2 3 9 5 11 1 2 8 5 3 9 12 15 17 17 15 13 16 14 13 12 12 11 11 11 12 12 13 13 12 11 11 13 13 12 11 11 12 12 11 10 9 10 10 10 9 9 8 9 8 6 7 6 6 5 5 5 5 5 5 4 4 4 4 5 5 6 4 4 5 4 4 4 3 2 3 3 2 2 1 2 2 3 3 3 2
8 10 9 9 7 7 6 4 1 2 2 2 3 7 7 1 1 3 3 6 6 5 9 13 16 17 17 15 14 11 10 11 11 12 13 12 12 13 14 13 13 13 13 13 13 12 11 11 12 13 12 11 10 10 10 10 10 9 9 8 8 6 6 6 6 5 5 4 4 5 5 4 4 5 5 5 5 5 5 5 5 5 4 3 3 3 3 3 3 3 2 2 2 2 2 2 3
9 6 10 6 5 4 5 4 5 4 2 3 6 6 2 6 4 1 3 5 7 8 9 9 13 15 16 16 15 13 12 8 8 10 11 13 13 14 12 12 12 13 14 13 12 11 10 11 11 13 12 11 11 11 10 11 9 10 9 8 8 7 7 6 6 5 4 5 5 5 5 4 5 4 4 4 5 5 5 4 4 5 4 4 4 4 3 3 3 3 2 2 2 2 3 3 3
6 6 6 5 9 2 5 2 4 4 5 4 6 3 1 1 1 1 2 3 4 8 10 10 11 12 14 13 14 13 10 7 6 7 9 10 11 11 10 11 12 12 13 12 13 11 12 12 12 13 13 13 12 12 11 11 10 9 9 9 9 8 6 6 5 4 4 5 5 5 4 4 4 3 3 3 4 5 5 5 5 5 4 4 4 4 4 3 3 3 2 3 4 2 3 4 3
7 7 11 7 3 4 4 4 5 5 1 3 2 4 3 3 5 2 1 1 1 3 9 10 10 12 14 14 15 16 14 11 8 8 3 4 8 9 10 11 11 11 11 12 12 12 14 12 12 13 12 11 12 12 12 11 10 9 10 10 9 9 9 8 7 7 7 6 5 5 4 4 4 3 3 4 4 4 4 5 5 5 5 5 5 5 4 4 3 3 3 3 4 3 3 3 3
8 8 7 6 2 3 2 3 2 3 5 3 3 7 2 1 2 2 1 0 1 2 5 8 8 11 14 14 15 16 14 11 8 8 8 5 7 10 10 10 12 11 12 12 10 9 9 10 12 13 13 13 13 12 12 11 10 10 9 10 10 10 9 9 8 7 6 5 5 5 4 4 5 4 4 3 4 5 4 5 4 4 4 4 4 4 4 4 4 4 4 4 3 2 3 3 3
4 4 13 10 6 10 1 2 4 5 5 3 3 5 7 5 3 4 3 1 2 3 5 7 9 11 12 13 14 12 13 12 10 8 7 6 4 5 7 10 12 11 10 8 8 7 8 9 9 11 14 14 14 11 11 9 10 8 8 10 10 9 8 8 7 6 5 6 7 6 6 5 4 4 4 4 4 5 5 4 4 5 5 5 4 5 4 4 4 4 4 4 4 3 3 4 4
2 2 11 1 4 6 7 4 0 3 3 4 3 2 5 6 2 4 6 4 2 4 5 6 8 9 10 11 11 12 12 12 11 9 8 9 7 4 5 7 9 10 9 9 10 9 11 11 10 9 9 8 9 11 11 11 11 10 9 9 9 8 8 8 7 7 7 7 7 6 6 6 6 5 5 5 5 5 5 5 5 5 5 5 5 5 5 4 4 4 4 4 3 4 4 5 4
7 7 7 5 1 3 0 2 2 3 4 5 3 3 5 2 2 4 7 6 5 4 7 6 6 8 9 10 10 10 12 12 12 10 9 9 8 7 3 3 3 6 8 8 9 11 11 11 11 11 12 11 11 11 10 10 10 10 11 11 11 10 10 9 9 8 8 7 7 7 6 6 4 5 5 5 5 5 5 5 5 5 5 5 5 5 4 4 4 5 4 4 4 4 5 5 4
8 9 8 8 7 8 10 6 2 1 3 2 6 4 1 4 1 3 7 6 7 6 7 7 8 9 9 9 10 10 10 12 13 12 10 7 6 6 5 5 2 2 5 7 8 9 10 11 12 12 12 11 12 12 11 10 10 9 11 11 11 9 10 9 9 8 9 8 7 7 6 5 6 5 6 6 6 5 5 5 6 5 5 6 5 5 5 5 5 5 5 4 5 5 5 6 5
Wind_Direction
144 140 131 136 145 186 203 142 227 109 219 94 125 180 93 121 120 124 114 132 129 150 111 120 137 143 138 169 111 76 38 149 2 262 98 102 148 143 150 143 139 141 134 134 136 137 136 148 151 130 116 117 111 107 106 104 100 94 91 91 92 93 91 89 87 86 88 90 82 85 86 95 99 100 102 103 91 100 105 103 111 107 101 101 104 101 99 101 102 93 87 95 98 101 101 100 96
141 138 130 138 160 261 131 287 354 141 112 128 86 108 107 125 148 136 143 143 133 152 140 141 143 93 77 120 108 116 58 39 28 90 88 127 142 142 149 147 145 139 135 134 134 133 133 131 130 117 117 112 112 113 114 109 105 102 103 100 98 95 91 88 88 92 90 91 98 96 105 112 110 105 105 91 90 116 115 113 109 110 106 106 106 111 109 107 106 94 77 75 94 102 103 102 95
142 146 128 172 141 336 113 216 236 116 147 139 124 100 113 147 136 135 127 114 126 131 141 139 116 91 117 124 127 314 98 62 96 108 113 143 139 152 154 148 144 138 134 132 129 121 115 101 97 108 104 107 113 118 115 107 106 108 106 104 95 89 91 89 90 91 89 93 99 98 98 107 107 107 95 88 107 127 123 119 114 110 107 112 112 108 109 110 107 94 82 72 49 83 101 101 101
141 145 140 209 130 207 226 163 220 208 165 123 139 124 156 139 130 128 120 120 128 141 142 148 138 338 165 129 75 95 92 93 99 129 130 158 149 151 153 150 143 137 131 129 124 115 105 98 54 103 110 120 121 116 109 108 108 109 106 100 96 88 88 95 91 90 92 103 107 101 111 107 112 93 72 91 132 137 122 116 119 117 110 108 109 108 106 103 98 98 108 112 109 72 87 97 98
140 141 350 348 290 32 309 23 27 215 166 157 143 137 137 137 131 127 119 129 141 146 153 136 113 67 62 75 52 354 86 99 125 138 140 134 141 149 151 148 145 138 132 128 125 118 109 87 86 119 120 120 115 108 105 106 107 100 96 94 86 82 91 100 108 105 112 104 106 114 116 116 90 71 94 133 123 128 117 118 123 117 113 112 111 109 103 96 95 106 105 104 104 99 85 85 106
116 137 216 312 8 69 239 229 147 106 59 313 148 143 140 136 134 129 126 123 141 150 144 136 120 149 107 44 30 97 124 146 144 134 145 143 148 149 149 149 145 139 132 129 127 119 115 96 110 118 116 108 103 101 101 94 89 87 89 92 93 92 91 92 98 95 63 74 112 126 118 100 80 93 141 126 125 134 132 135 133 116 114 111 110 109 104 102 106 104 101 104 104 95 87 127 110
130 149 70 252 156 210 331 350 75 84 78 338 126 142 147 137 135 135 132 121 113 132 159 128 119 119 107 110 90 63 44 111 150 143 149 143 144 148 150 151 146 137 134 130 125 115 110 112 121 119 112 107 99 95 94 96 94 96 91 94 99 102 96 72 65 70 85 98 118 116 119 83 80 137 152 122 124 120 116 131 128 122 115 111 109 106 101 101 110 107 106 107 103 104 112 100 105
103 306 354 334 36 272 247 13 81 356 68 29 127 139 143 141 143 143 141 141 153 157 163 138 129 84 79 140 104 64 73 103 110 127 136 141 143 147 152 150 144 134 131 128 126 115 120 127 118 113 108 102 102 103 104 100 101 97 92 86 79 68 66 65 66 82 102 101 94 83 76 89 137 128 122 121 105 117 131 127 122 122 122 117 109 102 94 100 108 105 104 109 107 102 94 95 100
110 286 136 264 325 51 342 145 89 71 80 96 113 122 138 148 149 144 143 142 129 139 154 158 156 122 103 98 79 80 86 111 117 126 136 141 145 147 151 150 141 137 134 133 127 125 123 119 115 110 113 113 110 108 105 100 97 95 93 78 58 69 78 80 87 87 90 89 78 90 96 114 116 121 133 116 130 148 139 118 124 119 114 112 109 103 104 105 102 105 114 121 116 105 100 102 97
102 340 12 343 5 178 174 114 150 81 106 106 122 132 142 150 143 153 135 139 147 142 133 116 94 107 129 100 107 100 113 120 124 129 134 143 144 147 147 141 138 136 136 134 128 125 114 115 113 116 112 109 106 100 92 87 84 91 82 77 94 83 94 90 90 91 87 85 90 84 92 105 119 126 124 132 146 139 119 121 117 112 111 116 113 112 114 114 109 111 123 121 115 109 109 102 109
356 212 287 314 95 163 193 130 85 128 124 115 102 123 142 149 139 136 139 124 135 133 122 121 99 122 119 88 69 93 118 125 135 135 140 144 145 144 138 132 134 136 133 131 123 116 123 124 123 112 109 102 89 87 85 93 95 87 85 88 100 108 85 87 85 87 84 82 82 89 95 93 111 104 112 120 124 118 112 117 116 114 112 113 113 111 116 123 126 132 131 126 115 109 94 94 106
345 354 326 44 357 321 151 142 129 113 128 137 127 133 153 149 138 133 132 132 135 131 138 175 135 127 103 118 108 120 129 134 132 134 139 143 142 139 132 133 133 129 128 124 121 115 115 122 117 112 107 97 93 91 95 93 94 90 83 98 105 101 96 93 89 89 90 92 90 92 89 98 101 106 96 129 136 104 113 118 115 105 108 113 115 112 115 122 130 131 133 131 123 117 116 131 113
354 344 14 340 4 324 60 139 175 152 137 151 142 133 146 154 162 142 132 120 134 129 132 158 138 146 109 116 119 125 134 134 134 137 142 144 137 134 134 130 133 128 122 119 113 108 112 106 106 100 84 87 83 89 89 85 83 86 90 93 100 97 97 101 97 88 92 92 83 81 85 94 102 115 139 141 119 113 118 113 115 103 112 116 112 110 113 119 122 126 127 117 112 95 132 132 111
288 24 352 20 264 283 152 120 176 191 151 126 107 126 129 139 126 136 128 122 130 125 101 131 121 107 102 115 129 138 136 145 140 143 139 137 133 131 132 131 133 127 119 115 115 122 117 104 95 91 88 80 82 83 81 85 85 88 93 98 98 98 96 92 85 86 86 87 82 79 86 92 99 96 108 120 110 104 109 118 110 105 106 111 113 109 105 109 115 109 104 101 93 88 79 95 113
267 112 307 358 346 313 143 164 191 192 138 139 128 145 121 87 129 139 139 121 82 109 115 100 114 183 166 160 151 149 147 149 148 142 138 134 128 129 129 131 131 123 119 118 123 124 114 102 97 93 88 91 90 85 77 80 83 90 94 98 92 88 85 82 81 79 81 87 86 82 85 88 97 113 115 104 102 102 97 100 98 94 97 101 109 103 101 106 103 99 99 109 120 112 113 112 119
266 298 326 355 352 284 149 152 178 205 141 158 134 125 109 103 124 134 75 84 122 129 146 127 15 352 141 166 145 140 143 148 145 139 135 130 129 129 130 135 134 125 120 125 126 116 112 104 101 102 99 93 86 85 83 77 79 83 87 93 93 88 83 83 82 79 80 81 81 77 74 76 83 92 99 98 94 99 107 100 96 114 112 112 113 102 104 103 92 85 107 129 136 132 137 116 102
225 289 315 346 325 240 160 197 160 200 113 136 143 152 135 128 96 61 102 121 125 121 98 93 74 128 123 120 129 136 142 144 143 142 135 134 137 137 138 140 141 133 131 128 122 126 116 112 111 106 98 95 91 84 76 75 78 83 87 89 83 80 80 81 78 74 73 73 82 80 77 78 83 81 84 81 86 94 102 112 120 105 114 122 99 93 105 105 97 88 82 124 137 137 127 120 105
280 296 332 331 324 241 214 205 177 114 143 146 162 160 136 134 123 115 115 97 96 105 94 88 88 88 105 118 126 135 144 145 145 146 144 143 147 147 148 151 155 155 150 139 137 130 118 113 113 111 109 102 99 88 81 82 87 87 88 83 82 84 80 80 80 80 79 81 77 73 73 80 81 82 88 92 89 97 105 112 115 129 126 106 94 99 99 94 89 68 29 25 112 121 121 110 103
242 266 284 338 266 322 307 186 152 147 144 137 137 155 140 132 133 160 138 130 121 108 107 107 103 106 115 123 131 141 149 148 150 151 148 149 153 154 153 153 159 154 156 151 141 133 108 115 119 117 105 109 104 98 96 99 93 91 86 82 81 78 81 82 82 86 94 88 80 75 73 73 78 82 83 92 98 100 108 117 117 125 126 112 102 100 99 96 92 88 134 214 123 120 124 106 101
219 256 301 330 283 299 347 164 152 119 142 132 143 155 132 139 142 165 144 146 137 136 133 125 131 133 134 134 141 146 152 151 154 153 151 150 153 155 154 158 158 161 158 155 144 138 129 122 121 115 115 116 107 100 105 103 101 95 87 91 94 91 86 87 92 92 91 90 87 87 87 88 86 85 89 91 100 99 97 99 104 110 112 107 109 102 105 112 115 166 192 172 124 115 92 95 84
131 222 250 354 4 304 91 148 130 126 126 121 128 142 131 141 131 159 135 138 148 146 154 148 149 145 142 144 147 151 154 155 157 158 152 152 152 154 157 159 161 159 159 151 146 150 132 124 122 117 120 119 113 110 108 107 108 104 100 99 95 91 92 91 94 99 97 97 99 96 91 87 89 90 88 84 85 91 92 96 111 119 116 115 123 122 107 139 171 172 156 138 103 92 78 68 60
180 246 272 286 302 339 119 134 128 134 127 132 133 147 148 124 125 138 154 158 168 166 156 146 149 148 147 147 151 153 157 157 159 160 158 158 156 154 157 159 154 159 161 166 157 156 145 136 131 125 128 120 110 113 109 111 115 107 104 96 98 99 96 90 87 88 93 96 102 106 101 96 94 97 96 95 93 98 106 109 120 115 106 113 138 129 151 163 150 131 117 102 84 80 64 50 52
243 235 259 262 264 313 150 136 141 142 145 143 156 133 130 151 129 146 120 49 92 123 139 139 142 144 143 141 148 155 159 160 162 163 162 161 160 159 160 161 165 168 171 162 161 159 147 145 148 140 131 121 118 112 112 113 103 106 105 101 103 104 103 96 92 89 86 88 95 105 108 105 101 101 98 95 98 104 107 107 97 94 98 105 107 113 115 121 116 111 88 80 60 58 63 62 57
247 271 297 300 269 241 157 141 144 144 146 146 119 144 135 131 129 152 84 92 121 129 130 133 138 139 140 142 151 155 160 162 164 161 164 163 160 161 162 164 170 165 175 163 168 164 161 157 153 155 135 133 125 117 116 114 114 118 107 101 99 103 107 102 96 90 85 81 79 84 87 95 97 93 96 103 108 101 94 97 98 98 98 96 94 97 109 108 99 83 74 71 58 37 26 30 40
230 252 268 272 241 169 152 139 147 140 128 104 128 120 116 122 124 131 83 126 127 128 133 135 139 139 143 146 150 155 159 161 161 161 162 166 169 163 165 165 170 172 178 171 168 167 165 155 162 160 149 139 131 129 119 117 118 107 109 107 104 108 103 97 96 96 88 83 80 78 79 87 88 92 96 98 100 99 98 99 101 97 94 90 95 95 76 66 79 61 52 35 49 18 23 39 24
213 241 278 167 138 140 138 137 146 139 129 141 125 112 92 106 117 78 119 129 129 132 135 140 143 144 147 151 152 157 163 163 162 164 170 167 170 170 170 170 167 180 175 169 165 165 165 161 167 162 157 146 137 136 121 126 115 110 115 110 107 113 99 98 99 94 91 92 93 88 86 92 97 100 101 102 99 97 99 96 95 90 83 75 76 80 61 35 42 35 35 34 29 38 37 35 4
225 238 228 143 125 131 142 136 131 134 139 155 140 128 108 21 265 137 126 138 134 136 139 146 150 150 152 154 155 160 166 168 167 164 167 173 173 176 172 169 170 171 171 173 166 162 160 168 163 164 161 159 141 139 136 126 122 122 120 110 111 109 110 110 101 93 93 89 90 95 95 92 98 99 96 94 92 90 93 89 79 83 80 69 56 70 46 23 357 4 12 3 19 18 31 31 0
265 115 119 113 112 115 123 108 106 137 111 306 122 115 111 112 332 130 144 149 142 140 147 155 155 155 154 155 158 163 169 169 169 171 171 173 177 178 173 173 170 167 175 175 166 160 162 168 163 163 169 164 149 141 143 137 135 127 128 121 116 111 119 114 106 102 98 93 95 103 103 98 90 86 82 79 81 83 84 84 82 77 76 71 66 51 27 5 357 3 7 346 329 341 21 33 15
214 150 124 117 120 110 125 120 150 296 120 205 93 93 130 167 150 136 147 150 146 143 151 158 161 161 158 158 159 166 171 173 174 176 175 173 172 176 175 176 168 165 171 171 160 165 162 167 162 165 167 168 161 152 145 144 139 135 140 129 118 128 123 123 115 110 107 107 108 111 109 103 86 88 74 72 80 83 80 78 87 78 74 71 59 32 23 19 35 30 40 7 18 4 22 32 356
156 154 128 120 128 121 113 93 63 109 30 65 341 165 198 181 133 144 152 154 146 145 154 161 163 165 163 163 164 168 174 177 181 181 172 167 171 175 174 175 171 164 160 162 163 170 162 162 164 167 166 171 171 157 146 153 149 141 140 129 120 132 127 126 121 116 119 122 124 119 116 107 97 81 85 82 87 100 96 86 84 83 77 62 57 45 50 37 37 29 26 18 23 15 26 27 29
159 123 154 148 151 188 142 131 163 162 131 218 11 211 177 175 158 138 159 159 154 155 159 165 166 167 167 167 169 174 177 184 183 177 174 168 170 174 174 173 174 163 158 165 173 171 168 164 165 166 172 166 172 162 165 155 159 151 148 137 129 142 134 139 133 129 131 132 133 124 118 112 103 95 90 103 98 98 101 90 83 78 68 61 62 50 39 40 32 31 24 20 16 27 24 28 23
138 155 168 165 196 150 145 127 180 163 157 170 320 252 247 181 167 148 157 164 164 156 165 167 169 169 170 170 174 178 180 183 182 179 175 172 172 172 174 173 174 169 168 167 165 170 175 171 171 170 168 172 171 169 165 164 161 162 146 130 133 151 146 148 144 142 137 138 133 117 112 111 99 91 100 110 110 99 95 94 85 81 71 64 58 55 46 40 32 32 28 18 19 28 19 39 31
175 274 159 164 160 150 158 187 181 214 153 160 190 193 136 176 168 150 159 165 169 162 169 171 172 171 171 174 176 180 179 183 181 180 177 175 176 175 174 172 175 175 172 168 167 172 178 173 177 171 170 169 166 167 166 165 166 169 177 158 141 157 159 155 154 151 153 142 130 119 122 117 108 99 105 113 117 116 108 102 96 81 67 59 57 55 51 41 26 30 28 24 18 10 17 28 25
182 241 166 165 168 160 185 136 205 191 183 179 195 215 103 99 163 154 156 174 175 174 176 174 173 171 175 176 180 183 185 183 184 182 179 181 178 178 176 173 173 176 172 173 171 172 178 176 178 176 162 167 161 165 170 172 172 172 182 159 156 167 166 162 159 166 167 153 152 139 136 132 127 124 123 124 100 93 95 96 94 82 71 60 56 52 48 39 33 26 25 23 18 13 15 16 9
179 178 164 168 149 179 162 176 184 183 198 194 191 224 166 124 160 165 168 177 183 180 180 178 177 175 178 181 184 187 188 186 185 184 180 184 180 180 178 174 174 175 175 175 172 168 169 174 172 169 165 167 160 163 155 162 156 177 168 172 158 172 169 169 160 179 168 170 158 138 150 152 142 143 137 140 136 115 107 100 93 89 68 59 44 47 44 37 29 29 24 23 27 29 14 18 14
180 179 173 160 168 179 197 195 138 172 173 204 201 216 199 132 165 171 173 181 177 155 176 186 186 184 182 183 186 187 189 188 182 182 182 183 184 180 177 174 174 175 174 171 172 170 168 172 178 171 174 167 157 162 168 172 175 180 176 165 169 180 181 175 187 191 180 190 163 167 160 154 153 146 147 147 134 120 108 94 91 84 73 55 52 45 42 38 28 26 28 14 21 42 46 21 18
162 168 160 182 183 178 173 203 101 177 159 196 210 235 248 185 174 186 177 177 177 170 180 188 194 190 189 187 186 187 188 188 178 180 182 185 185 180 178 172 173 173 172 171 174 178 174 175 179 180 174 166 164 168 180 181 181 182 187 186 182 175 182 178 194 189 198 183 159 174 161 162 149 146 146 157 141 127 111 102 89 76 66 62 60 64 61 44 37 29 32 25 15 26 40 22 27
167 169 179 156 192 205 149 120 102 261 242 121 213 227 235 227 194 193 175 176 181 181 178 187 199 197 196 191 189 190 188 186 178 180 183 182 184 182 177 176 174 175 177 177 180 181 179 177 179 178 171 173 176 176 170 178 178 188 183 188 184 174 175 188 185 195 188 150 157 175 178 158 150 151 154 156 153 158 149 137 100 63 49 57 59 77 78 60 42 38 31 50 43 26 40 15 16
80 170 156 168 150 87 77 128 163 172 203 205 186 185 218 210 197 188 189 190 191 188 185 182 189 197 199 197 194 189 186 189 186 188 185 184 182 179 181 182 182 183 178 183 184 181 180 179 179 174 176 176 180 175 172 178 182 180 192 175 192 170 188 191 177 154 164 171 166 182 189 170 164 167 165 163 165 176 165 145 147 85 32 21 39 61 60 55 44 43 43 35 26 57 40 40 20
156 141 175 163 138 177 157 157 163 185 199 193 181 192 198 194 195 191 201 196 192 155 157 171 195 207 202 200 192 193 194 191 193 192 190 187 181 180 183 184 182 183 180 183 185 185 184 183 178 175 176 181 176 177 177 177 172 161 175 158 166 190 176 168 169 159 169 181 179 181 187 191 188 179 172 176 167 177 180 191 166 186 120 350 352 27 42 64 52 52 45 44 25 18 35 45 34
98 267 177 125 167 175 237 161 176 168 278 359 172 202 210 201 192 197 194 192 180 173 169 160 153 207 306 207 202 204 202 196 196 195 193 188 184 185 186 184 180 183 185 186 187 188 191 188 179 176 175 181 178 173 173 164 153 155 147 132 151 146 143 177 181 182 187 185 195 192 193 199 193 193 182 182 183 179 186 191 201 192 226 287 326 343 24 40 42 57 47 47 39 16 31 34 48
187 206 234 151 142 120 113 130 142 170 204 195 180 195 231 196 209 202 181 179 188 182 188 193 171 169 210 223 209 203 209 204 200 197 193 189 186 188 186 180 185 187 190 192 190 189 191 188 180 174 172 177 179 175 172 168 168 166 165 176 187 199 204 198 204 199 190 194 198 186 191 201 195 198 194 193 191 194 193 190 198 209 223 216 276 329 16 25 77 45 54 36 46 40 13 29 48
223 165 209 189 158 134 141 151 162 180 213 181 210 236 250 162 207 207 187 184 192 182 197 205 186 175 195 222 214 203 204 205 203 200 193 190 190 187 184 187 192 192 191 187 189 190 189 185 181 179 174 174 176 176 173 174 169 175 180 187 189 192 200 196 209 224 213 195 194 187 197 200 208 209 200 199 192 191 201 197 200 216 220 231 245 263 266 288 59 48 43 50 35 26 9 42 38
216 94 185 183 156 152 158 162 193 91 62 126 200 236 283 258 208 205 200 195 190 195 203 203 195 188 187 205 217 208 204 206 203 200 193 194 189 188 190 194 195 198 186 182 185 187 188 185 179 181 176 174 175 173 178 180 175 179 183 189 190 198 206 194 187 203 212 228 212 210 198 204 205 219 213 198 202 192 193 195 203 213 220 222 239 251 287 326 20 54 43 41 32 18 25 35 37
289 137 168 173 185 162 168 179 181 145 174 163 203 220 257 250 85 175 185 193 195 202 207 205 200 206 198 198 207 207 207 204 203 199 198 196 190 190 193 195 199 193 184 183 185 185 185 184 179 179 181 177 177 177 179 184 183 181 184 187 190 199 203 195 180 186 212 216 238 222 223 214 210 219 226 220 204 205 198 199 195 209 215 215 224 231 254 296 306 347 353 26 35 59 37 43 35
135 110 100 102 106 157 178 185 155 151 215 217 199 196 240 259 125 166 181 203 206 204 205 207 204 199 202 199 201 207 205 202 206 204 199 197 194 195 196 196 192 194 189 184 183 178 178 179 180 180 184 186 180 181 184 182 187 183 188 192 192 185 181 178 187 193 204 218 244 242 236 228 225 212 208 218 214 214 214 205 205 207 215 213 235 246 280 279 269 266 277 283 4 22 98 114 38
119 141 106 102 114 130 141 142 153 143 224 249 186 194 223 283 166 186 177 212 209 196 200 208 207 203 206 201 198 204 202 199 199 204 202 197 197 198 195 195 195 190 185 180 180 180 178 180 185 185 187 186 183 185 186 186 187 189 196 195 197 193 182 179 182 199 204 213 234 238 236 236 232 228 213 201 222 223 219 221 226 210 217 202 225 225 237 250 234 238 236 245 241 230 193 175 142
156 147 147 113 92 130 145 149 185 211 215 85 196 192 200 238 139 203 188 83 193 194 198 200 203 205 201 193 197 204 203 196 194 198 201 198 195 196 193 196 189 186 181 181 186 182 180 180 183 187 186 187 188 189 188 190 189 191 197 194 198 198 185 186 196 195 193 203 211 218 225 231 232 226 214 219 221 221 216 220 223 220 213 216 211 217 232 232 243 239 230 243 235 204 192 197 235
207 169 167 191 149 183 172 164 196 209 216 56 175 163 183 237 332 102 196 203 152 207 212 205 203 202 199 191 196 197 193 193 189 191 192 192 193 190 193 190 183 180 186 187 188 186 182 180 181 185 189 189 190 191 191 189 190 193 193 194 198 196 193 198 201 205 195 199 198 198 194 212 218 219 208 217 218 216 213 216 216 217 217 219 225 218 223 231 245 244 243 251 235 205 191 202 212
194 196 181 180 176 192 186 176 341 227 185 151 144 167 245 12 148 115 216 233 234 218 215 209 200 197 192 185 189 184 181 189 188 188 193 189 191 194 193 187 184 189 191 189 189 185 181 181 183 189 190 187 188 194 194 191 194 195 193 192 194 189 197 201 204 214 208 207 202 207 208 206 204 212 206 206 215 207 215 218 216 222 226 223 219 220 225 225 228 240 238 255 234 204 212 217 240
199 193 183 202 185 188 181 179 185 195 124 113 142 164 221 216 94 282 278 274 259 235 228 217 203 197 190 184 184 179 180 172 170 180 185 187 190 191 187 184 186 190 192 191 189 184 175 179 181 189 187 187 189 193 194 196 194 195 194 197 192 192 198 199 206 211 210 209 216 213 212 214 218 215 211 204 200 205 213 216 219 226 219 221 217 219 218 220 228 234 245 259 265 213 223 238 238
175 184 197 201 202 165 239 170 221 159 144 129 173 242 74 282 50 320 291 278 253 226 221 214 199 190 186 182 176 169 164 148 151 158 178 183 185 183 184 187 188 187 189 190 189 182 183 186 185 190 190 186 190 192 195 195 195 191 191 195 196 193 192 198 196 197 206 217 215 218 212 212 223 214 204 200 202 207 208 213 214 222 223 222 218 219 225 224 216 229 234 239 241 215 224 230 237
162 174 202 194 106 186 101 101 43 93 167 188 130 264 207 244 223 204 239 302 318 209 204 203 195 185 182 185 185 180 169 154 143 123 89 173 181 185 187 189 191 191 191 191 188 184 187 184 184 190 192 189 192 194 196 195 192 189 192 195 196 195 198 201 208 207 214 207 212 217 219 217 210 216 213 206 210 203 209 214 219 223 215 223 222 219 219 224 223 226 223 229 240 229 226 244 247
125 200 178 80 29 332 274 214 136 194 222 170 189 234 213 161 205 141 130 128 76 109 173 184 178 177 184 188 190 184 165 153 126 127 147 178 182 180 182 186 190 191 193 192 186 182 187 187 187 187 190 193 194 194 198 198 194 197 195 196 198 201 204 209 212 210 205 199 201 211 212 203 214 211 210 206 205 207 207 203 217 222 226 223 230 226 218 222 225 231 222 230 237 239 239 236 239
212 213 134 187 163 201 146 175 185 166 203 190 223 269 273 215 223 143 143 139 113 132 154 162 169 179 182 183 182 161 149 147 151 130 131 120 134 181 180 183 192 190 189 184 176 174 187 194 194 194 198 198 194 193 196 199 200 203 204 204 203 204 207 209 209 208 206 208 212 202 212 215 208 194 194 198 207 210 203 200 208 221 215 220 224 232 224 227 225 236 229 232 214 221 234 238 231
80 103 169 357 203 182 172 211 71 237 164 194 189 248 254 194 227 143 140 122 102 137 159 160 163 166 170 175 172 157 155 163 154 147 153 140 144 147 151 167 179 179 181 187 184 183 197 198 194 197 202 197 195 196 192 195 199 205 206 203 204 203 201 204 202 204 213 212 209 208 210 207 211 201 202 192 207 214 208 210 209 216 220 218 218 225 226 224 231 237 236 240 220 218 235 242 246
179 197 180 183 172 2 29 75 229 226 166 210 163 203 238 118 15 170 144 133 91 85 117 116 129 147 160 167 160 157 162 164 167 164 168 165 154 166 124 60 141 178 180 181 187 188 194 193 196 196 196 197 199 202 199 198 198 203 203 202 206 205 207 205 208 208 215 211 207 210 210 215 193 205 197 197 198 204 208 212 221 215 219 213 215 224 227 232 237 243 239 243 247 234 241 249 247
193 186 196 187 154 166 185 191 110 210 194 171 189 213 122 87 145 146 144 132 130 122 112 108 123 139 150 155 154 153 159 165 170 179 184 169 161 169 154 167 164 140 188 193 194 190 194 194 197 195 197 199 203 205 206 200 198 201 205 206 210 206 205 204 206 205 214 212 210 205 204 197 207 203 200 203 202 202 203 210 217 214 214 214 209 211 226 227 234 242 246 237 237 237 241 250 256